Location: Buchberg
(46.9333°N, 15.8500°E)
Time: 09:30:05
(UTC+00:00)

SL-19 R/B - Pass Details

Date: 14 July 2020
Orbit: 358 x 810 km, 99.4° (Epoch: 07 August)

Event Time Altitude Azimuth Distance (km) Brightness Sun altitude
Rises 02:33:00 0° 15° (NNE) 2,219 8.5 -6.7°
Reaches altitude 10° 02:34:53 10° 14° (NNE) 1,387 7.4 -6.4°
Maximum altitude 02:37:47 84° 289° (WNW) 400 3.6 -6.1°
Drops below altitude 10° 02:40:56 10° 199° (SSW) 1,499 6.0 -5.7°
Enters shadow 02:42:14 - 198° (SSW) 2,068 6.7 -5.5°
